Miscellaneous Local Product
Issued by NWS Hastings, NE

Home | Current Version | Previous Version | Graphics & Text | Print | Product List | Glossary On
Versions: 1 2 3 4 5 6 7 8 9 10 11 12 13 14 15 16 17 18 19 20 21 22 23 24 25 26 27 28 29 30 31 32 33 34 35 36 37 38 39 40 41 42 43 44 45 46 47 48 49 50
801
AXUS43 KGID 261402
MISGRI

GID CWA HOURLY WEATHER ROUNDUP
NATIONAL WEATHER SERVICE HASTINGS NE
900 AM CDT FRI MAY 26 2017

NOTE: "FAIR" INDICATES FEW OR NO CLOUDS BELOW 12,000 FEET WITH NO
SIGNIFICANT WEATHER AND/OR OBSTRUCTIONS TO VISIBILITY.

...SOUTH CENTRAL NEBRASKA...

CITY           SKY/WX    TMP DP  RH WIND       PRES   REMARKS
GRAND ISLAND   SUNNY     62  47  57 N17       29.84R
HASTINGS       SUNNY     61  45  55 N18       29.86R
KEARNEY        PTSUNNY   61  43  51 N18       29.86R
ORD            MOSUNNY   60  43  53 N20G29    29.85R
YORK           MOSUNNY   63  46  55 N17G26    29.80R
AURORA         MOSUNNY   63  46  53 N20G26    29.82R
LEXINGTON      MOSUNNY   61  45  56 N22G28    29.88R
HOLDREGE       PTSUNNY   61  43  52 N18G26    29.86S
HEBRON         MOSUNNY   67  54  63 N16G22    29.78R

...NEBRASKA PANHANDLE...

CITY           SKY/WX    TMP DP  RH WIND       PRES   REMARKS
CHADRON        SUNNY     54  41  61 NW9       29.93S
ALLIANCE       SUNNY     51  39  63 N7        29.94R
SCOTTSBLUFF    SUNNY     51  40  65 W7        29.96S
SIDNEY         SUNNY     50  40  68 NW7       29.97R

...WESTERN AND NORTH CENTRAL NEBRASKA...

CITY           SKY/WX    TMP DP  RH WIND       PRES   REMARKS
VALENTINE      SUNNY     58  38  47 N15G23    29.91R
AINSWORTH      SUNNY     56  43  62 N15       29.91R
ONEILL         SUNNY     59  43  55 NW14      29.88R
BROKEN BOW     MOSUNNY   59  43  55 N22G29    29.88R
IMPERIAL       PTSUNNY   53  44  71 N13       29.93S
NORTH PLATTE   MOSUNNY   58  44  60 N15G24    29.91R
MCCOOK         PTSUNNY   57  45  64 N9        29.90R

...EASTERN NEBRASKA...

CITY           SKY/WX    TMP DP  RH WIND       PRES   REMARKS
NORFOLK        PTSUNNY   60  45  57 NW20G28   29.80R
SO SIOUX CITY  PTSUNNY   62  51  67 NW23      29.76R
TEKAMAH        PTSUNNY   64  54  69 NW15      29.75R
ALBION         CLOUDY    60  46  58 N16G25    29.82R
OMAHA EPPLEY   PTSUNNY   67  59  75 NW6       29.74R
OFFUTT AFB     PTSUNNY   68  59  74 W10       29.73R
MILLARD        CLOUDY    68  60  75 NW7       29.74R
LINCOLN        CLOUDY    68  54  60 N17G25    29.77R
NEBRASKA CITY  MOSUNNY   69  57  65 NW5       29.73R
BEATRICE       SUNNY     69  61  75 N13       29.75R
FALLS CITY     SUNNY     69  62  78 NW7       29.72R

...NORTHERN KANSAS...

CITY           SKY/WX    TMP DP  RH WIND       PRES   REMARKS
GOODLAND       SUNNY     56  51  84 N16       29.93R
HILL CITY      SUNNY     61  49  64 N18G24    29.88R
NORTON         SUNNY     57  45  62 N15       29.86F
PHILLIPSBURG   SUNNY     61  48  63 N13G20    29.85R
SMITH CENTER   MOSUNNY   61  48  63 N20G25    29.82R
HAYS           SUNNY     65  57  75 N16       29.83R
RUSSELL        SUNNY     65  58  78 N18       29.80R
CONCORDIA      SUNNY     66  60  81 N13       29.78R
SALINA         SUNNY     69  61  75 W8        29.76R
TOPEKA         SUNNY     70  64  81 CALM      29.72R



USA.gov is the U.S. government's official web portal to all federal, state and local government web resources and services.